カタログに戻る

STARLINK-35885

運用中通信VLEO
NORAD 66890·PAYLOAD·🇺🇸 United States

打ち上げ Dec 4, 2025 から Vandenberg Space Force Base

Loading…

次のパス (今後24時間)

TLE

最新Source: CelesTrak SupGP

元期: Sep 15, 2026, 02:47 UTC

1 66890C 25283N   26258.11645833 -.00051540  00000+0 -15227-2 0  2586
2 66890  53.1583 220.8720 0001349  84.2075 310.3479 15.34418262    14

AllMySatでSTARLINK-35885をリアルタイム追跡

Download on the App Store